Regional Weather Roundup
Issued by NWS Raleigh/Durham, NC

Home | Current Version | Previous Version | Text Only | Print | Product List | Glossary On
Versions: 1 2 3 4 5 6 7 8 9 10 11 12 13 14 15 16 17 18 19 20 21 22 23 24 25 26 27 28 29 30 31 32 33 34 35 36 37 38 39 40 41 42 43 44 45 46 47 48 49 50
000
ASUS42 KRAH 220710
RWRRAH
NORTH CAROLINA WEATHER ROUNDUP
NATIONAL WEATHER SERVICE RALEIGH NC
300 AM EDT FRI AUG 22 2014

NOTE: "FAIR" INDICATES FEW OR NO CLOUDS BELOW 12,000 FEET WITH NO
SIGNIFICANT WEATHER AND/OR OBSTRUCTIONS TO VISIBILITY.

NCZ001-053-055-056-065-067-220800-
WESTERN NORTH CAROLINA

CITY           SKY/WX    TMP DP  RH WIND       PRES   REMARKS
ASHEVILLE      CLOUDY    70  68  93 CALM      30.16F
JEFFERSON      PTCLDY    71  63  75 W8        30.18F
MORGANTON      CLOUDY    72  72  99 CALM      30.13F
HICKORY        CLOUDY    74  71  91 N3        30.08F
RUTHERFORDTON  CLOUDY    73  72  95 CALM      30.08F
MOUNT AIRY     PTCLDY    69  66  92 CALM      30.08F
BOONE          PTCLDY    70  63  79 W7        30.20F
$$

NCZ021-022-025-041-071-084-088-220800-
CENTRAL NORTH CAROLINA

CITY           SKY/WX    TMP DP  RH WIND       PRES   REMARKS
CHARLOTTE      CLOUDY    77  70  79 CALM      30.06F
GREENSBORO     PTCLDY    73  69  87 W5        30.05F
WINSTON-SALEM  PTCLDY    75  65  70 W3        30.06F
RALEIGH-DURHAM PTCLDY    74  71  91 CALM      30.02F
FORT BRAGG     MOCLDY    77  72  85 CALM      30.01F
FAYETTEVILLE   MOCLDY    78  70  76 SW6       30.01F
BURLINGTON     CLEAR     73  69  87 CALM      30.04F
LAURINBURG     MOCLDY    74  71  91 CALM      30.03F
$$

NCZ011-015-027-028-043-044-047-080-103-220800-
NORTHEASTERN NORTH CAROLINA

CITY           SKY/WX    TMP DP  RH WIND       PRES   REMARKS
ROCKY MT-WILSO PTCLDY    75  73  93 CALM      30.00F FOG
GREENVILLE     PTCLDY    77  73  88 CALM      30.01F
WASHINGTON     MOCLDY    77  74  91 CALM      30.01S
ELIZABETH CITY PTCLDY    77  76  96 W7        29.97F FOG
MANTEO         PTCLDY    79  75  89 CALM      29.98S
CAPE HATTERAS  PTCLDY    79  79 100 W5        29.99F
$$

NCZ078-087-090-091-093-098-101-220800-
SOUTHEASTERN NORTH CAROLINA

CITY           SKY/WX    TMP DP  RH WIND       PRES   REMARKS
LUMBERTON      PTCLDY    73  71  93 CALM      30.02F
GOLDSBORO      MOCLDY    76  76  98 CALM      29.99F
KINSTON        MOCLDY    75  74  95 CALM      30.01F
KENANSVILLE    MOCLDY    73  72  95 CALM      30.03S
NEW BERN       MOCLDY    80  74  81 W3        30.01S
CHERRY POINT   MOCLDY    78  74  87 SW5       30.02S
BEAUFORT       MOCLDY    81  77  88 W6        30.00F
JACKSONVILLE   MOCLDY    77  74  90 CALM      30.01S
WILMINGTON     MOCLDY    77  74  90 CALM      30.02S
$$




USA.gov is the U.S. government's official web portal to all federal, state and local government web resources and services.